(44) Nysa
ephemeris date magn radius delta ra dec elong phase
Today18 Sep 202511.32.116 AU2.236 AU07h03m+19°48'70.0°26.5°
Opposition23 Jan 20268.62.062 AU1.078 AU08h21m+18°24'179.0°0.5°
(44) Nysa - 2025-09-18
astro.vanbuitenen.nl


 
-1 year
-1 month
-1 day
Now
+1 day
+1 month
+1 year

The interactive orbit chart above shows the body's path through the solar system and its position at the given date. Green and blue lines are shown perpendicular to the ecliptic plane: Green if the path is above the ecliptic plane, blue if it is below. (Left-click and drag to rotate the view; Right-click and drag to move the view; Use scroll wheel to zoom in our out.)

The orbital elements of Nysa are:

            e (Eccentricity)                : 0.1496909
            a (Semimajor axis)              : 2.4222286
            i (Inclination)                 : 3.71221
            Ω (Longitude of ascending node) : 131.48660
            ω (Argument of perihelion)      : 344.12060
            M (Mean anomaly)                : 296.70957
            Epoch                           : 2025 May 05

            L (Longitude of perihelion)     : 115.63884
            B (Latitude of perihelion)      : -1.01505
            P (Orbital period in years)     : 3.77            
        

The light curve chart below shows the estimated development of the minor planet's magnitude.


The all-sky chart below shows the path of the minor planet over the same period as the light curve. The current position is marked yellow.





The following chart shows the path of the minor planet in the next few days. The field of view is optimized for (~10x50) binoculars and finderscopes. A more printer-friendly version of the same chart can be found below.




Ephemerides:
Date       Time       RA (2000)    DEC (2000)    delta   radius  elong  phase   PA    magn
2025-09-18 00:00 UT   07 03 39.6   +19 48 26     2.236    2.116   70.0   26.5   275   11.3 
2025-09-18 20:33 UT   07 05 15.2   +19 45 54     2.226    2.115   70.5   26.6   275   11.3 
2025-09-19 00:00 UT   07 05 31.2   +19 45 29     2.225    2.115   70.6   26.6   275   11.3 
2025-09-20 00:00 UT   07 07 22.3   +19 42 27     2.213    2.114   71.1   26.7   276   11.3 
2025-09-21 00:00 UT   07 09 12.9   +19 39 21     2.202    2.113   71.7   26.8   276   11.3 
2025-09-22 00:00 UT   07 11 02.8   +19 36 12     2.190    2.112   72.2   26.9   276   11.3 
2025-09-23 00:00 UT   07 12 52.2   +19 32 59     2.178    2.111   72.7   27.0   276   11.3 
2025-09-24 00:00 UT   07 14 41.0   +19 29 42     2.167    2.110   73.3   27.1   276   11.3 
2025-09-25 00:00 UT   07 16 29.2   +19 26 22     2.155    2.109   73.8   27.2   277   11.3 
2025-09-26 00:00 UT   07 18 16.8   +19 22 59     2.144    2.108   74.4   27.3   277   11.2 
2025-09-27 00:00 UT   07 20 03.8   +19 19 32     2.132    2.107   74.9   27.4   277   11.2 
2025-09-28 00:00 UT   07 21 50.1   +19 16 03     2.120    2.106   75.5   27.4   277   11.2 
2025-09-29 00:00 UT   07 23 35.8   +19 12 30     2.108    2.105   76.1   27.5   277   11.2 
2025-09-30 00:00 UT   07 25 20.8   +19 08 55     2.097    2.104   76.6   27.6   278   11.2 
2025-10-01 00:00 UT   07 27 05.2   +19 05 16     2.085    2.103   77.2   27.7   278   11.2 
2025-10-02 00:00 UT   07 28 48.9   +19 01 35     2.073    2.102   77.8   27.7   278   11.2 
2025-10-03 00:00 UT   07 30 31.9   +18 57 52     2.061    2.102   78.3   27.8   278   11.2 
2025-10-04 00:00 UT   07 32 14.2   +18 54 06     2.050    2.101   78.9   27.9   278   11.2 
2025-10-05 00:00 UT   07 33 55.8   +18 50 18     2.038    2.100   79.5   27.9   279   11.1 
2025-10-06 00:00 UT   07 35 36.6   +18 46 28     2.026    2.099   80.1   28.0   279   11.1 
2025-10-07 00:00 UT   07 37 16.8   +18 42 35     2.014    2.098   80.7   28.0   279   11.1 
2025-10-08 00:00 UT   07 38 56.2   +18 38 41     2.002    2.097   81.2   28.1   279   11.1 


    Terminology:
            
    delta:  distance between minor planet and earth in AU
    radius: distance between minor planet and sun in AU
    magn:   magnitude (brightness) estimate    
    ra:     right ascension in hours (24h = 360deg)
    dec:    declination in degrees
    elong:  elongation in degrees (angle sun-earth-minor planet)    
    phase:  phase angle in degrees (angle sun-minor planet-earth)        
    AU:     Astronomical Unit (mean distance between earth and sun: 149597870.7 km
    

Orbital elements provided by the MPC (Minor Planet Center).
Calculations by a modified version of AAPlus, a C# implementation of the AA+ project by PJ Naughter from the algorithms presented in the book "Astronomical Algorithms" by Jean Meeus.
NGC2000 dso catalog and star labels from VizieR as provided by the Strasbourg astronomical Data Center.
Tycho2 catalog from the ESO archive.